STARLINK-3225 (49737 NORAD) Tracking and Keplerian Element Data

This shows tracking and keplerian element data for the satellite.

Feedback or suggestion? Click here.




ElementValue
Catalog49737
NameSTARLINK-3225
Epoch Orbit130
Epoch Day140.58334491
Epoch Year2022
RAAN265.0645
Inclination53.217
Eccentricity0.000225
Argument of Perigee31.4206
Mean Anonmoly145.0837
Mean Motion15.08867478
Decay Rate-0.00067874
L11 49737U 21115P 22140.58334491 -.00067874 00000+0 -42836-2 0 9994
L22 49737 53.2170 265.0645 0002250 31.4206 145.0837 15.08867478 1309

Live tracking and technical data element details for STARLINK-3225 (NORAD 49737). STARLINK-3225 can be tracked NOW for your location showing map with azimuth and elevation plus other details from your city location.

Track the satellite on the map from your city or location and see movement details for azimuth, elevation, latitude, longitude, range, height, and movement on the map or in text.







IsCatalogInMostPopularTable: catalog: 49737, numindb: 21
Update: records affected: 1



GetName: 49737 STARLINK-3225

Hit Count: updated at: Mon, 23 May 2022 19:59:12 GMT